This is the latest recevied weather packets stored in our database for station/object WA4OPQ-1. If no packets are shown the sender has not sent any weather packets the latest 10 day(s).
| Time | Temp. | Humidity | Pressure | Rain* | Wind** | Luminosity | Snow |
|---|---|---|---|---|---|---|---|
| 1787854088 | 29.44° C | 73% | 1012.3 hPa | 0 mm | 0.45 m/s, 326° | 667 W/m² | - |
| 1787853518 | 29.44° C | 69% | 1012.4 hPa | 0 mm | 0 m/s | 663 W/m² | - |
| 1787853023 | 30° C | 76% | 1012.4 hPa | 0 mm | 0 m/s | 675 W/m² | - |
| 1787852533 | 30° C | 74% | 1012.6 hPa | 0 mm | 0 m/s | 678 W/m² | - |
| 1787851988 | 29.44° C | 76% | 1012.4 hPa | 0 mm | 0 m/s | 681 W/m² | - |
| 1787851426 | 29.44° C | 75% | 1012.4 hPa | 0 mm | 0 m/s | 679 W/m² | - |
| 1787850853 | 28.89° C | 77% | 1012.7 hPa | 0 mm | 0 m/s | 663 W/m² | - |
| 1787850258 | 27.78° C | 77% | 1013.1 hPa | 0 mm | 0.45 m/s, 325° | 658 W/m² | - |
| 1787849733 | 27.78° C | 79% | 1013.1 hPa | 0 mm | 0 m/s | 649 W/m² | - |
| 1787849223 | 27.78° C | 83% | 1013.1 hPa | 0 mm | 0 m/s | 656 W/m² | - |
| 1787848733 | 27.78° C | 81% | 1013.3 hPa | 0 mm | 0.89 m/s, 289° | 667 W/m² | - |
| 1787848243 | 27.78° C | 80% | 1013 hPa | 0 mm | 0.45 m/s, 320° | 654 W/m² | - |
| 1787847669 | 27.22° C | 83% | 1013.4 hPa | 0 mm | 0 m/s | 607 W/m² | - |
| 1787847106 | 26.67° C | 83% | 1013.4 hPa | 0 mm | 0.45 m/s, 300° | 662 W/m² | - |
| 1787846548 | 26.11° C | 87% | 1013.2 hPa | 0 mm | 0.89 m/s, 334° | 632 W/m² | - |
| 1787845998 | 25.56° C | 87% | 1013.4 hPa | 0 mm | 0.45 m/s, 300° | 615 W/m² | - |
| 1787845418 | 25.56° C | 89% | 1013.6 hPa | 0 mm | 0 m/s | 733 W/m² | - |
| 1787844863 | 24.44° C | 91% | 1013.8 hPa | 0 mm | 0 m/s | 414 W/m² | - |
| 1787844333 | 23.89° C | 93% | 1013.8 hPa | 0 mm | 0.45 m/s, 311° | 744 W/m² | - |
| 1787843848 | 22.78° C | 94% | 1013.8 hPa | 0 mm | 0.45 m/s, 295° | 352 W/m² | - |
| 1787843303 | 23.33° C | 96% | 1014 hPa | 0 mm | 0 m/s | 235 W/m² | - |
| 1787842728 | 22.22° C | 99% | 1013.9 hPa | 0 mm | 0 m/s | 219 W/m² | - |
| 1787842146 | 21.67° C | 99% | 1013.6 hPa | 0 mm | 0 m/s | 199 W/m² | - |
| 1787841613 | 21.67° C | 99% | 1014 hPa | 0 mm | 0 m/s | 74 W/m² | - |
| 1787841106 | 21.67° C | 99% | 1013.9 hPa | 0 mm | 0 m/s | 101 W/m² | - |
* Rain latest hour (hover to see other rain measurements)
** Current wind speed in m/s (hover to see current wind gust speed)